Other Public Products
Issued by NWS Grand Forks, ND

Home | Current Version | Previous Version | Text Only | Print | Product List | Glossary Off
Versions: 1 2 3 4 5 6 7 8 9 10 11 12 13 14 15 16 17 18 19 20 21 22 23 24 25 26 27 28 29 30 31 32 33 34 35 36 37 38 39 40 41 42 43 44 45 46 47 48 49 50

000
FPUS83 KFGF 061231
OPUFGF
PRAIRIE TO PINES WEATHER ROUNDUP
NATIONAL WEATHER SERVICE EASTERN NORTH DAKOTA/GRAND FORKS ND
700 AM CDT WED MAY 06 2015

 **SATELLITE DATA USED TO AUGMENT SKY COVER AT AUTOMATED STATIONS**
 *****  WEATHER ACROSS EASTERN NORTH DAKOTA  *****

CITY           SKY/WX    TMP DP  RH WIND       PRES   REMARKS
GRAND FORKS    CLOUDY    60  55  83 S12       29.91S
6HR MIN TEMP:  57; 6HR MAX TEMP:  62;

GRAND FORKS AF CLOUDY    59  55  88 S16       29.90F
GRAND CITY NWS   N/A     57 N/A N/A S9          N/A
BUXTON           N/A     58  57  99 CALM        N/A
DEVILS LAKE    CLOUDY    57  52  82 SE13      29.86S
6HR MIN TEMP:  57; 6HR MAX TEMP:  61;

FARGO          CLOUDY    59  55  87 SE15      29.93S
6HR MIN TEMP:  59; 6HR MAX TEMP:  64;

WAHPETON ARPT  CLOUDY    55  52  88 SE16G26   29.96R
$$

 *****  WEATHER ACROSS CENTRAL AND WESTERN NORTH DAKOTA  *****

CITY           SKY/WX    TMP DP  RH WIND       PRES   REMARKS
JAMESTOWN      CLOUDY    56  55  97 SE12      29.87S FOG
6HR MIN TEMP:  56; 6HR MAX TEMP:  61; 6HR PCP:  0.02;

BISMARCK       CLOUDY    59  28  30 SE16      29.79S HAZE
6HR MIN TEMP:  58; 6HR MAX TEMP:  60; 6HR PCP: TRACE;

MINOT          CLOUDY    59  53  80 SE13G23   29.76S
6HR MIN TEMP:  51; 6HR MAX TEMP:  59;

MINOT AFB      CLOUDY    58  58 100 SE13      29.75F
6HR MIN TEMP:  49; 6HR MAX TEMP:  58;

GARRISON         N/A     58  56  93 SE16      29.77F
6HR MIN TEMP:  55; 6HR MAX TEMP:  58; 6HR PCP:  0.01;

WILLISTON      MOCLDY    58  52  80 S12       29.69S
6HR MIN TEMP:  57; 6HR MAX TEMP:  62;

DICKINSON      LGT RAIN  55  53  93 SE14      29.73S
6HR MIN TEMP:  54; 6HR MAX TEMP:  56; 6HR PCP: TRACE;

HETTINGER      CLOUDY    55  53  93 SE12      29.75S FOG
6HR MIN TEMP:  55; 6HR MAX TEMP:  57;

$$

 *****  OTHER OBSERVATIONS NORTHEAST NORTH DAKOTA  *****

CITY           SKY/WX    TMP DP  RH WIND       PRES   REMARKS
WALHALLA       CLOUDY    57  57 100 SE8       29.90S
LANGDON        CLOUDY    57  54  88 S15       29.89S
CAVALIER       PTSUNNY   57  50  77 S8        29.90S
GRAFTON        CLOUDY    57  54  88 SE10      29.91S
CANDO          PTSUNNY   57  54  88 SE10      29.86S
FORT TOTTEN      N/A     56  55  96 S12       29.95S
ROLLA          NOT AVBL
RUGBY          NOT AVBL
 ***** THE ABOVE OBSERVATIONS ARE NON NWS ARE NOT QUALITY
        CONTROLLED AND MAY MIS-REPORT RAIN FOR SNOW...
$$

 *****  OTHER OBSERVATIONS SOUTHEAST NORTH DAKOTA *****

CITY           SKY/WX    TMP DP  RH WIND       PRES   REMARKS
COOPERSTOWN    NOT AVBL
VALLEY CITY    CLOUDY    55  55 100 SE14      29.90R FOG
OAKES            N/A     55  55 100 SE12      29.89S FOG
GWINNER        CLOUDY    57  57 100 SE14      29.92R
SHEYENNE NWR     N/A     56  55  96 SE14      29.95
BUFFALO        NOT AVBL
WYNDMERE         N/A     55  55 100 SE12        N/A
 ***** THE ABOVE OBSERVATIONS ARE NON NWS ARE NOT QUALITY
       CONTROLLED AND MAY MIS-REPORT RAIN FOR SNOW...
$$

  *****  WEATHER ACROSS NORTHERN MINNESOTA  *****

CITY           SKY/WX    TMP DP  RH WIND       PRES   REMARKS
FLAG ISLAND    CLEAR     54  39  58 SE6       29.99S
WARROAD        CLEAR     54  45  71 SE6       29.99S
ROSEAU         MOCLDY    59  45  58 SE14      29.96F
HALLOCK        MOCLDY    61  46  59 SE12      29.92S
THF RVR FALLS  CLOUDY    57  45  62 E9        29.95F
6HR MIN TEMP:  55; 6HR MAX TEMP:  59;

HALSTAD          N/A     60  57  89 S12         N/A
FOSSTON        CLOUDY    57  50  77 SE7       29.97S
BAUDETTE       PTCLDY    50  32  50 SE10      30.02S
6HR MIN TEMP:  48; 6HR MAX TEMP:  54;

WASKISH        MOCLDY    50  41  71 CALM      30.02S
CROOKSTON      CLOUDY    63  55  77 S17G23    29.94R
$$
  *****  WEATHER ACROSS CENTRAL AND WEST MINNESOTA  *****

CITY           SKY/WX    TMP DP  RH WIND       PRES   REMARKS
BEMIDJI        CLOUDY    56  49  77 SE9       30.00S
PARK RAPIDS    CLOUDY    58  52  80 SE12      30.00F
6HR MIN TEMP:  58; 6HR MAX TEMP:  62;

WADENA         CLOUDY    55  54  94 SE13      30.00S FOG
DETROIT LAKES  CLOUDY    55  54  94 SE16      29.98S
MOORHEAD       CLOUDY    57  55  94 SE17      29.94S FOG
FERGUS FALLS   CLOUDY    57  55  94 SE14G20   29.98R
ELBOW LAKE     CLOUDY    55  54  95 SE15      29.97S FOG
6HR MIN TEMP:  55; 6HR MAX TEMP:  58;

MORRIS MN      CLOUDY    55  54  94 SE16      29.97R FOG
STAPLES        CLOUDY    54  52  94 SE9       30.02S FOG
WHEATON        CLOUDY    54  52  94 SE20      29.97S FOG
$$
  *****  WEATHER ELSEWHERE ACROSS MINNESOTA  *****

CITY           SKY/WX    TMP DP  RH WIND       PRES   REMARKS
DULUTH         LGT RAIN  45  40  82 E6        30.11S
6HR MIN TEMP:  45; 6HR MAX TEMP:  52; 6HR PCP: TRACE;

INTRNTL FALLS  SUNNY     47  32  56 SE8       30.07S
6HR MIN TEMP:  42; 6HR MAX TEMP:  54;

ELY            MOSUNNY   48  30  49 CALM      30.12S
CLOQUET        DRIZZLE   45  41  87 E5        30.10F
BRAINERD       CLOUDY    55  52  89 SE7       30.05R
6HR MIN TEMP:  54; 6HR MAX TEMP:  60; 6HR PCP: TRACE;

HIBBING        LGT RAIN  48  37  65 SE6       30.10R
6HR MIN TEMP:  38; 6HR MAX TEMP:  50; 6HR PCP: TRACE;

ALEXANDRIA     FOG       54  53  97 SE12      30.01S VSB 1/2
6HR MIN TEMP:  54; 6HR MAX TEMP:  57;

SAINT CLOUD    FOG       55  54  96 SE9       30.05R VSB 3/4
6HR MIN TEMP:  55; 6HR MAX TEMP:  57;

MINNEAPOLIS    CLOUDY    56  54  93 SE13      30.08R FOG
6HR MIN TEMP:  56; 6HR MAX TEMP:  56; 6HR PCP: TRACE;

$$

  *****  WEATHER ACROSS SOUTH DAKOTA  *****

CITY           SKY/WX    TMP DP  RH WIND       PRES   REMARKS
SIOUX FALLS    LGT RAIN  63  59  87 SE15      29.90S
6HR MIN TEMP:  62; 6HR MAX TEMP:  63; 6HR PCP:  0.01;

BROOKINGS      CLOUDY    63  59  88 SE16      29.92S
WATERTOWN      LGT RAIN  59  57  93 SE9       29.91S FOG
6HR MIN TEMP:  57; 6HR MAX TEMP:  60; 6HR PCP:  0.01;

HURON          CLOUDY    62  59  90 SE13      29.83F
6HR MIN TEMP:  60; 6HR MAX TEMP:  62; 6HR PCP: TRACE;

SISSETON         N/A     56  56 100 S15       29.92S
ABERDEEN       LGT RAIN  60  58  92 SE16      29.85F FOG
6HR MIN TEMP:  60; 6HR MAX TEMP:  61; 6HR PCP:  0.02;

MITCHELL       CLOUDY    63  59  87 SE16      29.84F
PIERRE         CLOUDY    59  57  93 SE14      29.75F
6HR MIN TEMP:  56; 6HR MAX TEMP:  60; 6HR PCP: TRACE;

MOBRIDGE       LGT RAIN  60  58  92 E13       29.76F FOG
RAPID CITY     LGT RAIN  53  53 100 SE9       29.72F FOG
6HR MIN TEMP:  53; 6HR MAX TEMP:  56; 6HR PCP:  0.04;

$$

  *****  SOME WEATHER IN NEARBY STATES *****

CITY           SKY/WX    TMP DP  RH WIND       PRES   REMARKS
GLASGOW MT     MOCLDY    53  46  77 NW16      29.70R
6HR MIN TEMP:  53; 6HR MAX TEMP:  65;

GREAT FALLS MT CLOUDY    42  27  55 N10       29.91R
6HR MIN TEMP:  41; 6HR MAX TEMP:  52;

CHEYENNE WY    LGT RAIN  47  46  97 N6        29.71S
6HR MIN TEMP:  47; 6HR MAX TEMP:  47; 6HR PCP:  0.31;

SCOTTSBLUFF NE CLOUDY    54  53  97 E6        29.68S
6HR MIN TEMP:  52; 6HR MAX TEMP:  54; 6HR PCP:  0.12;

OMAHA NE       LGT RAIN  64  60  87 SE14      29.89S
6HR MIN TEMP:  63; 6HR MAX TEMP:  68; 6HR PCP:  0.02;

DES MOINES IA  CLOUDY    66  57  72 SE12      30.00R
6HR MIN TEMP:  65; 6HR MAX TEMP:  67;

DAVENPORT IA   FOG       57  55  93 E12       30.13R VSB 1
6HR MIN TEMP:  55; 6HR MAX TEMP:  57;

CHICAGO IL     FOG       49  48  97 NE5       30.18R VSB 1/8
6HR MIN TEMP:  46; 6HR MAX TEMP:  49;

EAU CLAIRE WI  CLOUDY    53  50  89 SE10      30.13R
6HR MIN TEMP:  51; 6HR MAX TEMP:  53; 6HR PCP:  0.02;

LA CROSSE WI   CLOUDY    56  53  90 SE7       30.12S FOG
6HR MIN TEMP:  56; 6HR MAX TEMP:  56;

$$

  *****  SOME NATIONAL WEATHER *****

CITY           SKY/WX    TMP DP  RH WIND       PRES   REMARKS



USA.gov is the U.S. government's official web portal to all federal, state and local government web resources and services.